Location: �clusier
(49.9361°N, 2.7869°E)
Time: 03:21:15
(UTC+00:00)

Cosmos 1943 Rocket - Pass Details

Date: 03 November 2021
Orbit: 811 x 844 km, 71.0° (Epoch: 07 December)

Event Time Altitude Azimuth Distance (km) Brightness Sun altitude
Rises 18:56:20 0° 332° (NNW) 3,414 5.8 -25.1°
Reaches altitude 10° 18:58:50 10° 336° (NNW) 2,474 5.0 -25.5°
Enters shadow 19:03:57 59° 30° (NNE) 972 2.3 -26.3°
